Total_Precipitation_Accumulation
0.02 0.06 0.15 0.15 0.13 0.14 0.16 0.14 0.12 0.11 0.11 0.14 0.18 0.19 0.19 0.20 0.18 0.15 0.14 0.18 0.24 0.31 0.38 0.39 0.37 0.36 0.32 0.27 0.16 0.08 0.05 0.04 0.04 0.03 0.03 0.04 0.06 0.07 0.06 0.05 0.05 0.07 0.11
0.01 0.05 0.13 0.14 0.15 0.17 0.18 0.14 0.11 0.08 0.09 0.14 0.18 0.19 0.20 0.20 0.17 0.17 0.20 0.24 0.27 0.31 0.35 0.33 0.33 0.28 0.21 0.14 0.07 0.04 0.02 0.01 0.01 0.01 0.01 0.01 0.03 0.04 0.04 0.04 0.05 0.08 0.11
0.01 0.05 0.11 0.15 0.17 0.17 0.15 0.12 0.08 0.07 0.09 0.14 0.17 0.18 0.20 0.20 0.20 0.20 0.21 0.23 0.25 0.27 0.24 0.21 0.18 0.12 0.07 0.05 0.03 0.02 0.01 0.01 0.01 0.01 0.01 0.03 0.04 0.06 0.06 0.06 0.08 0.11 0.12
0.04 0.06 0.10 0.16 0.20 0.20 0.16 0.11 0.07 0.07 0.10 0.14 0.17 0.19 0.20 0.21 0.20 0.21 0.18 0.17 0.18 0.16 0.12 0.10 0.06 0.03 0.02 0.02 0.02 0.01 0.01 0.00 0.00 0.01 0.02 0.03 0.04 0.08 0.10 0.10 0.11 0.12 0.12
0.07 0.08 0.13 0.18 0.22 0.22 0.17 0.11 0.09 0.09 0.10 0.15 0.18 0.19 0.23 0.23 0.23 0.22 0.16 0.11 0.11 0.08 0.06 0.04 0.02 0.02 0.01 0.01 0.01 0.01 0.00 0.00 0.00 0.01 0.02 0.04 0.05 0.11 0.12 0.12 0.12 0.12 0.12
0.10 0.11 0.17 0.21 0.26 0.25 0.20 0.14 0.11 0.10 0.12 0.16 0.19 0.20 0.24 0.26 0.28 0.23 0.11 0.07 0.07 0.04 0.03 0.02 0.01 0.01 0.01 0.01 0.01 0.01 0.01 0.00 0.00 0.01 0.02 0.03 0.06 0.13 0.15 0.14 0.14 0.15 0.17
0.13 0.17 0.22 0.25 0.27 0.29 0.24 0.19 0.15 0.13 0.15 0.16 0.19 0.20 0.22 0.25 0.29 0.24 0.10 0.05 0.04 0.03 0.02 0.02 0.01 0.01 0.01 0.01 0.01 0.01 0.00 0.00 0.00 0.01 0.02 0.03 0.08 0.17 0.18 0.15 0.15 0.15 0.14
0.19 0.23 0.31 0.37 0.34 0.32 0.32 0.27 0.21 0.18 0.18 0.19 0.20 0.21 0.22 0.23 0.26 0.23 0.11 0.04 0.02 0.02 0.01 0.01 0.01 0.01 0.01 0.01 0.01 0.00 0.00 0.00 0.00 0.01 0.02 0.03 0.07 0.11 0.11 0.09 0.09 0.10 0.11
0.31 0.31 0.33 0.41 0.45 0.42 0.38 0.37 0.34 0.28 0.24 0.23 0.24 0.25 0.21 0.19 0.21 0.19 0.11 0.04 0.03 0.03 0.02 0.02 0.02 0.02 0.02 0.01 0.01 0.00 0.00 0.00 0.00 0.01 0.01 0.02 0.04 0.06 0.06 0.08 0.10 0.12 0.12
0.52 0.48 0.40 0.39 0.42 0.45 0.43 0.37 0.37 0.34 0.30 0.27 0.26 0.24 0.19 0.17 0.18 0.16 0.10 0.05 0.03 0.03 0.03 0.03 0.03 0.02 0.02 0.01 0.00 0.00 0.00 0.00 0.00 0.00 0.01 0.02 0.03 0.04 0.05 0.07 0.10 0.11 0.13
0.74 0.70 0.57 0.44 0.40 0.39 0.41 0.38 0.39 0.37 0.32 0.29 0.26 0.23 0.20 0.20 0.19 0.14 0.08 0.05 0.04 0.04 0.03 0.03 0.02 0.02 0.01 0.00 0.00 0.00 0.00 0.00 0.00 0.00 0.01 0.01 0.02 0.03 0.04 0.06 0.08 0.09 0.10
0.77 0.72 0.67 0.58 0.49 0.44 0.40 0.37 0.38 0.34 0.32 0.28 0.23 0.21 0.21 0.20 0.18 0.14 0.09 0.06 0.05 0.05 0.04 0.03 0.02 0.01 0.01 0.00 0.00 0.00 0.00 0.00 0.00 0.00 0.00 0.01 0.02 0.03 0.04 0.06 0.07 0.07 0.08
0.92 0.78 0.68 0.63 0.59 0.52 0.44 0.37 0.34 0.30 0.28 0.27 0.23 0.20 0.19 0.19 0.19 0.16 0.10 0.08 0.07 0.06 0.06 0.05 0.03 0.01 0.00 0.01 0.00 0.00 0.00 0.00 0.00 0.00 0.00 0.01 0.01 0.03 0.05 0.06 0.06 0.07 0.07
1.17 0.98 0.83 0.74 0.67 0.60 0.51 0.40 0.33 0.28 0.25 0.23 0.22 0.22 0.20 0.16 0.14 0.13 0.08 0.06 0.05 0.05 0.05 0.04 0.02 0.02 0.01 0.00 0.00 0.00 0.00 0.00 0.00 0.00 0.01 0.01 0.01 0.03 0.05 0.06 0.06 0.08 0.09
1.29 1.19 1.01 0.91 0.81 0.72 0.63 0.50 0.38 0.32 0.26 0.23 0.22 0.21 0.19 0.16 0.14 0.12 0.08 0.06 0.04 0.04 0.04 0.03 0.02 0.01 0.01 0.01 0.00 0.00 0.00 0.00 0.00 0.01 0.01 0.00 0.00 0.02 0.04 0.06 0.08 0.10 0.15
1.25 1.28 1.21 1.06 0.93 0.81 0.71 0.57 0.46 0.37 0.31 0.27 0.23 0.21 0.19 0.17 0.15 0.13 0.09 0.08 0.06 0.05 0.04 0.04 0.03 0.02 0.02 0.01 0.01 0.01 0.01 0.01 0.02 0.01 0.01 0.01 0.01 0.01 0.02 0.05 0.09 0.15 0.21
1.33 1.39 1.34 1.26 1.17 0.97 0.83 0.73 0.58 0.46 0.36 0.31 0.28 0.25 0.21 0.18 0.18 0.15 0.12 0.08 0.08 0.08 0.06 0.06 0.05 0.04 0.03 0.03 0.02 0.03 0.02 0.03 0.03 0.02 0.03 0.02 0.02 0.01 0.02 0.04 0.09 0.14 0.20
1.47 1.48 1.48 1.34 1.33 1.26 1.10 0.92 0.73 0.58 0.48 0.39 0.35 0.32 0.29 0.23 0.21 0.21 0.18 0.14 0.12 0.10 0.10 0.09 0.08 0.07 0.05 0.04 0.04 0.04 0.05 0.05 0.04 0.04 0.04 0.03 0.03 0.03 0.03 0.03 0.06 0.10 0.15
1.56 1.52 1.60 1.50 1.42 1.47 1.41 1.20 1.01 0.86 0.69 0.58 0.49 0.40 0.38 0.36 0.33 0.31 0.25 0.22 0.21 0.20 0.16 0.14 0.11 0.10 0.09 0.08 0.07 0.08 0.08 0.07 0.06 0.05 0.04 0.03 0.02 0.02 0.02 0.03 0.03 0.05 0.08
1.62 1.67 1.70 1.74 1.66 1.69 1.76 1.61 1.35 1.14 0.98 0.86 0.74 0.65 0.57 0.47 0.45 0.41 0.34 0.31 0.29 0.28 0.26 0.23 0.18 0.15 0.13 0.14 0.14 0.10 0.09 0.07 0.06 0.05 0.04 0.04 0.03 0.03 0.03 0.03 0.04 0.04 0.05
1.45 1.61 1.61 1.66 1.75 1.77 1.76 1.63 1.42 1.20 1.09 1.04 0.97 0.92 0.81 0.68 0.58 0.50 0.45 0.44 0.40 0.34 0.30 0.28 0.26 0.23 0.20 0.20 0.20 0.15 0.11 0.09 0.07 0.06 0.06 0.06 0.05 0.05 0.05 0.06 0.06 0.06 0.07
1.20 1.31 1.42 1.46 1.56 1.62 1.59 1.55 1.54 1.56 1.40 1.25 1.13 1.01 0.92 0.87 0.80 0.69 0.59 0.54 0.51 0.47 0.41 0.37 0.38 0.36 0.33 0.33 0.35 0.34 0.23 0.14 0.09 0.08 0.09 0.09 0.09 0.09 0.09 0.09 0.09 0.09 0.09
0.97 1.09 1.17 1.27 1.35 1.36 1.49 1.59 1.62 1.63 1.56 1.31 1.08 0.94 0.96 1.01 1.00 0.90 0.79 0.74 0.70 0.68 0.62 0.58 0.58 0.55 0.50 0.49 0.51 0.56 0.45 0.27 0.17 0.11 0.10 0.11 0.12 0.10 0.10 0.10 0.10 0.11 0.11
0.77 0.91 1.01 1.10 1.20 1.22 1.34 1.37 1.31 1.19 1.16 1.09 1.03 1.02 1.07 1.10 1.10 1.06 1.02 0.94 0.85 0.82 0.77 0.81 0.87 0.83 0.76 0.64 0.57 0.55 0.55 0.48 0.43 0.29 0.16 0.14 0.14 0.13 0.13 0.13 0.13 0.14 0.15
0.62 0.67 0.81 0.96 1.02 1.04 1.10 1.16 1.23 1.17 1.11 1.13 1.12 1.04 0.99 0.97 1.02 1.09 1.09 1.05 0.93 0.84 0.82 0.84 0.86 0.89 0.86 0.80 0.74 0.71 0.69 0.62 0.57 0.54 0.36 0.22 0.21 0.20 0.20 0.20 0.21 0.23 0.25
0.53 0.50 0.60 0.73 0.90 0.97 1.00 1.05 1.10 1.08 1.02 1.00 1.04 1.02 1.01 0.95 0.90 0.92 0.98 0.98 0.98 0.95 0.92 0.94 0.97 0.98 0.98 0.96 0.90 0.83 0.79 0.73 0.65 0.67 0.62 0.45 0.37 0.32 0.32 0.33 0.35 0.37 0.38